Regional Weather Roundup
Issued by NWS

Home | Current Version | Previous Version | Text Only | Print | Product List | Glossary Off
Versions: 1 2 3 4 5 6 7 8 9 10 11 12 13 14 15 16 17 18 19 20 21 22 23 24 25 26 27

000
ASUS45 KSLC 252110
RWRUT

UTAH REGIONAL WEATHER ROUNDUP
NATIONAL WEATHER SERVICE SALT LAKE CITY UT
300 PM MDT SAT OCT 25 2014

UTZ001>011-023>025-252200-

NORTHERN UTAH

CITY           SKY/WX    TMP DP  RH WIND       PRES   REMARKS
BRIGHAM CITY   SUNNY     76  33  20 SW14G20   29.96F
HILL AFB       MOSUNNY   76  35  22 S17G32    29.99F
LOGAN          SUNNY     77  33  20 SW18G28   29.96F
OGDEN          MOSUNNY   77  33  20 S28G33    29.97F
PROVO AIRPORT  PTSUNNY   73  36  25 CALM      30.05
SALT LAKE CITY PTSUNNY   78  32  18 S22G30    29.96F
VERNAL         SUNNY     67  35  30 CALM      30.11F
WENDOVER       CLOUDY    72  36  26 E5        29.93F
HEBER CITY     PTSUNNY   73  32  21 W14G22    30.07F
WEST JORDAN    SUNNY     75  45  33 SE18      30.00F

$$

UTZ012>022-026-027-252200-

SOUTHERN/CENTRAL UTAH

CITY           SKY/WX    TMP DP  RH WIND       PRES   REMARKS
BLANDING       SUNNY     71  33  25 S3G16     30.31F
BRYCE CANYON   SUNNY     64  35  34 SW13      30.28F
CEDAR CITY     SUNNY     71  38  29 S23G43    30.14F
DELTA          SUNNY     77  32  19 SW30G37   30.05F
HANKSVILLE       N/A     75  32  20 SE7       30.11F
MILFORD        SUNNY     76  36  23 SW32G44   30.07F
MOAB/CYNLANDS  SUNNY     76  31  19 SE5       30.08F
PRICE          MOSUNNY   68  30  24 E5        30.17F
ST GEORGE      MOCLDY    81  41  24 W6        30.05F
KANAB            N/A     75  39  27 S14       30.18F

$$

REGIONAL REPORTS     COLORADO/ARIZONA

CITY           SKY/WX    TMP DP  RH WIND       PRES   REMARKS
CRAIG, CO      SUNNY     75  23  14 SW17G24   30.17F
GRAND JUNCTION SUNNY     76  28  17 W3        30.12F
RIFLE          SUNNY     72  28  19 E3        30.16F
MONTROSE       SUNNY     76  30  18 N9        30.19F
CORTEZ         SUNNY     76  32  20 SW13      30.25F
PAGE, AZ       SUNNY     77  35  21 N6        30.12F
GRAND CANYON   PTSUNNY   70  40  33 SW16G25   30.28F
KINGMAN        MOSUNNY   80  42  25 S15G24    30.10F
FLAGSTAFF      PTSUNNY   65  42  43 SW10G22   30.33F

$$

REGIONAL REPORTS    NEVADA/IDAHO/WYOMING

CITY           SKY/WX    TMP DP  RH WIND       PRES   REMARKS
LAS VEGAS, NV  MOSUNNY   86  41  20 S15G28    29.94F
ELY            MOSUNNY   71  27  19 S25G37    30.06F
ELKO           CLOUDY    74  28  18 S17G30    29.91F HAZE
POCATELLO, ID  SUNNY     75  31  19 S26G39    29.91F
BURLEY         CLOUDY    73  31  21 S18G28    29.87F
EVANSTON, WY   SUNNY     68  22  17 SW26G36   30.12F
ROCK SPRINGS   SUNNY     70  27  20 S26G36    30.10F
KEMMERER       SUNNY    N/A N/A N/A S6        30.13F

$$



USA.gov is the U.S. government's official web portal to all federal, state and local government web resources and services.